Location: Mercogliano
(40.9167°N, 14.7333°E)
Time: 07:13:24
(UTC+00:00)

Cosmos 2150 Rocket - Pass Details

Date: 24 January 2021
Orbit: 748 x 808 km, 74.0° (Epoch: 04 March)

Event Time Altitude Azimuth Distance (km) Brightness Sun altitude
Rises 19:09:59 0° 207° (SSW) 3,179 7.5 -34.2°
Reaches altitude 10° 19:12:22 10° 211° (SSW) 2,261 6.7 -34.6°
Enters shadow 19:13:15 15° 214° (SSW) 1,926 6.3 -34.8°
